AAL31 KMIA-KLAS

Flight info

Callsign AAL31
Flight time 5h 21m
Altitude 38000
Route HURCN NICHE JOBVA ECAKE SMELZ Q116 JAWJA CABLO PIGON MEI ELD MELTE ADM KA30Y GUP HAHAA RKSTR
Aircraft B789/H-SDE1E2E3FGHIJ2J3J4J5M1RWXY/LB1D1

Departure

Time 2026-05-05 09:42
Airport Miami International Airport (KMIA)

Arrival

Time 2026-05-05 15:03
Airport Harry Reid International Airport (KLAS)
Time Latitude Longitude Altitude Speed Heading
2026-05-05 09:01 25.79409 -80.28465 24 ft 0 kts 41°
2026-05-05 09:30 25.79400 -80.28474 21 ft 4 kts 41°
2026-05-05 09:31 25.79383 -80.28491 23 ft 4 kts 29°
2026-05-05 09:31 25.79360 -80.28494 23 ft 4 kts 336°
2026-05-05 09:31 25.79339 -80.28478 23 ft 4 kts 311°
2026-05-05 09:31 25.79327 -80.28453 22 ft 4 kts 275°
2026-05-05 09:32 25.79327 -80.28427 20 ft 3 kts 265°
2026-05-05 09:32 25.79329 -80.28398 22 ft 3 kts 265°
2026-05-05 09:32 25.79329 -80.28395 22 ft 0 kts 265°
2026-05-05 09:35 25.79328 -80.28421 20 ft 6 kts 265°
2026-05-05 09:35 25.79323 -80.28482 22 ft 10 kts 265°
2026-05-05 09:36 25.79318 -80.28576 20 ft 14 kts 271°
2026-05-05 09:36 25.79358 -80.28687 20 ft 17 kts 303°
2026-05-05 09:36 25.79424 -80.28811 20 ft 19 kts 299°
2026-05-05 09:36 25.79486 -80.28934 20 ft 18 kts 299°
2026-05-05 09:37 25.79549 -80.29057 20 ft 18 kts 299°
2026-05-05 09:37 25.79608 -80.29173 20 ft 17 kts 299°
2026-05-05 09:37 25.79667 -80.29288 20 ft 17 kts 299°
2026-05-05 09:37 25.79724 -80.29401 20 ft 17 kts 300°
2026-05-05 09:38 25.79781 -80.29512 20 ft 16 kts 300°
2026-05-05 09:38 25.79837 -80.29621 21 ft 16 kts 300°
2026-05-05 09:38 25.79891 -80.29729 20 ft 16 kts 296°
2026-05-05 09:38 25.79936 -80.29841 19 ft 16 kts 293°
2026-05-05 09:39 25.79975 -80.29956 19 ft 16 kts 286°
2026-05-05 09:39 25.80006 -80.30075 19 ft 16 kts 285°
2026-05-05 09:39 25.80051 -80.30120 19 ft 1 kts
2026-05-05 09:39 25.80064 -80.30111 19 ft 3 kts 40°
2026-05-05 09:40 25.80071 -80.30092 19 ft 4 kts 77°
2026-05-05 09:40 25.80075 -80.30050 18 ft 7 kts 88°
2026-05-05 09:40 25.80075 -80.30039 18 ft 0 kts 88°
2026-05-05 09:41 25.80075 -80.30038 18 ft 2 kts 88°
2026-05-05 09:41 25.80079 -80.29901 19 ft 41 kts 88°
2026-05-05 09:41 25.80102 -80.29382 21 ft 93 kts 87°
2026-05-05 09:42 25.80139 -80.28491 21 ft 138 kts 87°
2026-05-05 09:42 25.80190 -80.27283 61 ft 170 kts 88°
2026-05-05 09:42 25.80231 -80.26053 531 ft 153 kts 87°
2026-05-05 09:42 25.80280 -80.24843 836 ft 163 kts 88°
2026-05-05 09:43 25.80322 -80.23530 1333 ft 172 kts 87°
2026-05-05 09:43 25.80372 -80.22172 1866 ft 180 kts 88°
2026-05-05 09:43 25.80407 -80.20763 2427 ft 187 kts 89°
2026-05-05 09:43 25.80442 -80.19298 3033 ft 194 kts 86°
2026-05-05 09:44 25.80512 -80.17792 3668 ft 196 kts 85°
2026-05-05 09:44 25.80797 -80.16301 4207 ft 203 kts 59°
2026-05-05 09:44 25.81812 -80.15153 4505 ft 221 kts 26°
2026-05-05 09:44 25.83324 -80.14770 5008 ft 228 kts 356°
2026-05-05 09:45 25.84923 -80.14954 5578 ft 235 kts 347°
2026-05-05 09:45 25.86520 -80.15282 6347 ft 232 kts 345°
2026-05-05 09:45 25.88072 -80.15666 7120 ft 229 kts 342°
2026-05-05 09:45 25.89705 -80.16116 7234 ft 257 kts 340°
2026-05-05 09:46 25.91523 -80.16728 7459 ft 282 kts 340°
2026-05-05 09:46 25.93382 -80.17327 8291 ft 283 kts 340°
2026-05-05 09:46 25.95299 -80.17916 9018 ft 288 kts 340°
2026-05-05 09:46 25.97212 -80.18576 9747 ft 287 kts 328°
2026-05-05 09:47 25.98792 -80.19882 10257 ft 288 kts 308°
2026-05-05 09:47 26.00031 -80.21728 10316 ft 312 kts 305°
2026-05-05 09:47 26.01567 -80.23587 10370 ft 340 kts 311°
2026-05-05 09:47 26.03305 -80.25495 10467 ft 360 kts 311°
2026-05-05 09:48 26.05018 -80.27518 11161 ft 358 kts 308°
2026-05-05 09:48 26.06655 -80.29620 11784 ft 361 kts 307°
2026-05-05 09:48 26.08318 -80.31736 12412 ft 364 kts 308°
2026-05-05 09:48 26.10005 -80.33807 13038 ft 367 kts 309°
2026-05-05 09:49 26.11727 -80.35919 13673 ft 369 kts 309°
2026-05-05 09:49 26.13445 -80.38056 14242 ft 372 kts 308°
2026-05-05 09:49 26.15176 -80.40219 14796 ft 374 kts 308°
2026-05-05 09:49 26.16920 -80.42386 15356 ft 376 kts 308°
2026-05-05 09:50 26.18676 -80.44566 15884 ft 379 kts 308°
2026-05-05 09:50 26.20437 -80.46756 16403 ft 381 kts 308°
2026-05-05 09:50 26.22209 -80.48963 16907 ft 383 kts 308°
2026-05-05 09:50 26.23995 -80.51189 17408 ft 386 kts 308°
2026-05-05 09:51 26.25766 -80.53395 17907 ft 388 kts 308°
2026-05-05 09:51 26.27575 -80.55649 18346 ft 391 kts 308°
2026-05-05 09:51 26.29391 -80.57914 18803 ft 392 kts 308°
2026-05-05 09:51 26.31210 -80.60184 19237 ft 392 kts 308°
2026-05-05 09:52 26.33027 -80.62453 19693 ft 393 kts 308°
2026-05-05 09:52 26.34847 -80.64726 20128 ft 393 kts 308°
2026-05-05 09:52 26.36673 -80.67008 20555 ft 394 kts 308°
2026-05-05 09:52 26.38500 -80.69293 20962 ft 395 kts 308°
2026-05-05 09:53 26.40330 -80.71583 21381 ft 396 kts 308°
2026-05-05 09:53 26.42165 -80.73880 21759 ft 397 kts 309°
2026-05-05 09:53 26.43383 -80.75405 22002 ft 397 kts 309°
2026-05-05 09:53 26.45820 -80.78458 22487 ft 398 kts 309°
2026-05-05 09:54 26.47669 -80.80776 22835 ft 399 kts 309°
2026-05-05 09:54 26.49521 -80.83094 23174 ft 400 kts 310°
2026-05-05 09:54 26.51585 -80.85207 23457 ft 405 kts 318°
2026-05-05 09:54 26.53119 -80.86420 23651 ft 408 kts 322°
2026-05-05 09:55 26.55501 -80.88167 23879 ft 410 kts 322°
2026-05-05 09:55 26.57878 -80.89929 24156 ft 411 kts 322°
2026-05-05 09:55 26.60265 -80.91688 24493 ft 409 kts 323°
2026-05-05 09:55 26.62648 -80.93441 24757 ft 410 kts 323°
2026-05-05 09:56 26.65030 -80.95198 24977 ft 411 kts 323°
2026-05-05 09:56 26.67421 -80.96965 25210 ft 412 kts 323°
2026-05-05 09:56 26.69817 -80.98735 25446 ft 413 kts 323°
2026-05-05 09:56 26.72219 -81.00509 25657 ft 414 kts 323°
2026-05-05 09:57 26.74626 -81.02288 25891 ft 415 kts 323°
2026-05-05 09:57 26.77041 -81.04075 26114 ft 417 kts 323°
2026-05-05 09:57 26.79432 -81.05845 26333 ft 418 kts 323°
2026-05-05 09:57 26.81861 -81.07642 26553 ft 419 kts 323°
2026-05-05 09:58 26.84294 -81.09445 26791 ft 420 kts 323°
2026-05-05 09:58 26.86739 -81.11257 27022 ft 421 kts 323°
2026-05-05 09:58 26.89173 -81.13062 27247 ft 422 kts 323°
2026-05-05 09:58 26.91620 -81.14877 27600 ft 421 kts 323°
2026-05-05 09:59 26.94067 -81.16694 27812 ft 423 kts 323°
2026-05-05 09:59 26.96526 -81.18521 28040 ft 424 kts 323°
2026-05-05 09:59 26.98927 -81.20437 28228 ft 425 kts 322°
2026-05-05 09:59 27.01335 -81.22371 28465 ft 426 kts 322°
2026-05-05 10:00 27.03750 -81.24303 28689 ft 427 kts 322°
2026-05-05 10:00 27.06169 -81.26244 28915 ft 428 kts 322°
2026-05-05 10:00 27.08590 -81.28191 29138 ft 429 kts 322°
2026-05-05 10:00 27.11026 -81.30151 29303 ft 431 kts 322°
2026-05-05 10:01 27.13472 -81.32118 29509 ft 433 kts 322°
2026-05-05 10:01 27.15920 -81.34087 29722 ft 434 kts 322°
2026-05-05 10:01 27.18381 -81.36068 29936 ft 436 kts 322°
2026-05-05 10:01 27.20845 -81.38054 30139 ft 437 kts 322°
2026-05-05 10:02 27.23320 -81.40049 30426 ft 436 kts 322°
2026-05-05 10:02 27.25756 -81.42014 30593 ft 437 kts 322°
2026-05-05 10:02 27.28231 -81.44011 30782 ft 438 kts 322°
2026-05-05 10:02 27.30716 -81.46018 30970 ft 439 kts 322°
2026-05-05 10:03 27.33200 -81.48026 31149 ft 440 kts 322°
2026-05-05 10:03 27.35687 -81.50036 31331 ft 441 kts 322°
2026-05-05 10:03 27.38182 -81.52054 31511 ft 442 kts 322°
2026-05-05 10:03 27.40681 -81.54077 31687 ft 443 kts 322°
2026-05-05 10:04 27.43184 -81.56103 31865 ft 444 kts 322°
2026-05-05 10:04 27.45692 -81.58135 32033 ft 445 kts 321°
2026-05-05 10:04 27.48208 -81.60175 32225 ft 445 kts 321°
2026-05-05 10:04 27.50716 -81.62209 32514 ft 444 kts 321°
2026-05-05 10:05 27.53221 -81.64242 32786 ft 442 kts 321°
2026-05-05 10:05 27.55716 -81.66269 33052 ft 441 kts 321°
2026-05-05 10:05 27.58195 -81.68282 33414 ft 438 kts 321°
2026-05-05 10:05 27.60662 -81.70288 33698 ft 436 kts 321°
2026-05-05 10:06 27.63120 -81.72288 34011 ft 435 kts 321°
2026-05-05 10:06 27.65569 -81.74281 34268 ft 433 kts 321°
2026-05-05 10:06 27.68009 -81.76268 34528 ft 431 kts 321°
2026-05-05 10:06 27.70407 -81.78222 34782 ft 430 kts 321°
2026-05-05 10:07 27.72786 -81.80247 35018 ft 428 kts 320°
2026-05-05 10:07 27.75147 -81.82282 35279 ft 426 kts 320°
2026-05-05 10:07 27.77500 -81.84302 35534 ft 424 kts 320°
2026-05-05 10:07 27.79842 -81.86318 35781 ft 423 kts 320°
2026-05-05 10:08 27.82174 -81.88333 36032 ft 421 kts 320°
2026-05-05 10:08 27.84496 -81.90337 36393 ft 417 kts 320°
2026-05-05 10:08 27.86796 -81.92321 36704 ft 414 kts 320°
2026-05-05 10:08 27.89085 -81.94298 36926 ft 413 kts 320°
2026-05-05 10:09 27.91369 -81.96272 37145 ft 412 kts 320°
2026-05-05 10:09 27.93636 -81.98233 37379 ft 410 kts 320°
2026-05-05 10:09 27.95904 -82.00195 37595 ft 409 kts 320°
2026-05-05 10:09 27.98157 -82.02144 37814 ft 407 kts 320°
2026-05-05 10:10 28.00405 -82.04091 38029 ft 406 kts 320°
2026-05-05 10:10 28.02625 -82.06016 38050 ft 408 kts 320°
2026-05-05 10:10 28.07136 -82.09928 38047 ft 405 kts 320°
2026-05-05 10:11 28.11711 -82.13645 38045 ft 405 kts 322°
2026-05-05 10:11 28.16325 -82.17339 38063 ft 406 kts 322°
2026-05-05 10:12 28.20923 -82.21001 38057 ft 403 kts 322°
2026-05-05 10:12 28.25501 -82.24662 38058 ft 402 kts 322°
2026-05-05 10:13 28.30059 -82.28305 38053 ft 403 kts 322°
2026-05-05 10:13 28.34639 -82.31974 38043 ft 403 kts 322°
2026-05-05 10:14 28.39231 -82.35654 38047 ft 403 kts 322°
2026-05-05 10:14 28.43818 -82.39334 38051 ft 404 kts 322°
2026-05-05 10:15 28.48356 -82.42978 38054 ft 397 kts 321°
2026-05-05 10:15 28.52856 -82.46598 38050 ft 397 kts 321°
2026-05-05 10:16 28.57382 -82.50242 38043 ft 399 kts 321°
2026-05-05 10:16 28.61926 -82.53903 38055 ft 400 kts 321°
2026-05-05 10:17 28.66460 -82.57560 38053 ft 399 kts 321°
2026-05-05 10:17 28.70977 -82.61209 38054 ft 397 kts 321°
2026-05-05 10:18 28.75481 -82.64850 38046 ft 396 kts 321°
2026-05-05 10:18 28.79984 -82.68495 38042 ft 397 kts 321°
2026-05-05 10:19 28.84463 -82.72123 38069 ft 398 kts 321°
2026-05-05 10:19 28.88978 -82.75785 38070 ft 398 kts 321°
2026-05-05 10:20 28.93501 -82.79457 38058 ft 397 kts 321°
2026-05-05 10:20 28.97983 -82.83100 38054 ft 394 kts 321°
2026-05-05 10:21 29.02457 -82.86742 38049 ft 395 kts 321°
2026-05-05 10:21 29.06941 -82.90394 38076 ft 396 kts 321°
2026-05-05 10:22 29.11400 -82.94030 38048 ft 395 kts 321°
2026-05-05 10:22 29.15862 -82.97674 38045 ft 393 kts 321°
2026-05-05 10:23 29.20319 -83.01317 38050 ft 395 kts 321°
2026-05-05 10:23 29.24800 -83.04983 38054 ft 396 kts 321°
2026-05-05 10:24 29.29294 -83.08665 38058 ft 397 kts 321°
2026-05-05 10:24 29.33777 -83.12341 38065 ft 395 kts 321°
2026-05-05 10:25 29.38217 -83.15986 38037 ft 394 kts 321°
2026-05-05 10:25 29.42646 -83.19625 38053 ft 390 kts 321°
2026-05-05 10:26 29.47069 -83.23266 38055 ft 392 kts 321°
2026-05-05 10:26 29.51505 -83.26919 38063 ft 393 kts 321°
2026-05-05 10:27 29.55958 -83.30590 38066 ft 393 kts 321°
2026-05-05 10:27 29.60365 -83.34227 38064 ft 392 kts 321°
2026-05-05 10:28 29.64722 -83.37828 38058 ft 390 kts 321°
2026-05-05 10:28 29.69135 -83.41480 38059 ft 391 kts 320°
2026-05-05 10:29 29.73562 -83.45146 38063 ft 392 kts 320°
2026-05-05 10:29 29.77990 -83.48817 38055 ft 392 kts 320°
2026-05-05 10:30 29.82417 -83.52492 38061 ft 392 kts 320°
2026-05-05 10:30 29.86811 -83.56143 38054 ft 389 kts 320°
2026-05-05 10:31 29.91204 -83.59794 38052 ft 388 kts 320°
2026-05-05 10:31 29.95591 -83.63446 38050 ft 389 kts 320°
2026-05-05 10:32 29.99899 -83.67034 38061 ft 391 kts 320°
2026-05-05 10:32 30.04307 -83.70711 38063 ft 391 kts 320°
2026-05-05 10:33 30.08719 -83.74395 38066 ft 391 kts 320°
2026-05-05 10:33 30.13124 -83.78077 38067 ft 391 kts 320°
2026-05-05 10:34 30.17244 -83.82123 38072 ft 387 kts 311°
2026-05-05 10:34 30.20554 -83.86999 38068 ft 386 kts 305°
2026-05-05 10:35 30.23577 -83.92071 38044 ft 385 kts 305°
2026-05-05 10:35 30.26593 -83.97166 38086 ft 384 kts 304°
2026-05-05 10:36 30.29613 -84.02267 38066 ft 384 kts 304°
2026-05-05 10:36 30.32623 -84.07358 38062 ft 383 kts 304°
2026-05-05 10:37 30.35632 -84.12457 38061 ft 384 kts 304°
2026-05-05 10:37 30.38655 -84.17580 38066 ft 386 kts 304°
2026-05-05 10:38 30.41682 -84.22720 38063 ft 386 kts 304°
2026-05-05 10:38 30.44691 -84.27836 38063 ft 386 kts 304°
2026-05-05 10:39 30.47706 -84.32969 38051 ft 383 kts 305°
2026-05-05 10:39 30.50678 -84.38034 38044 ft 382 kts 305°
2026-05-05 10:40 30.53665 -84.43132 38044 ft 382 kts 305°
2026-05-05 10:40 30.56148 -84.47374 38045 ft 382 kts 305°
2026-05-05 10:41 30.59137 -84.52488 38041 ft 383 kts 304°
2026-05-05 10:41 30.62130 -84.57615 38046 ft 384 kts 304°
2026-05-05 10:42 30.66621 -84.65319 38047 ft 384 kts 304°
2026-05-05 10:43 30.69607 -84.70449 38046 ft 382 kts 305°
2026-05-05 10:43 30.72579 -84.75563 38044 ft 381 kts 305°
2026-05-05 10:44 30.75527 -84.80643 38048 ft 381 kts 305°
2026-05-05 10:44 30.78305 -84.85886 38058 ft 381 kts 299°
2026-05-05 10:45 30.80724 -84.91383 38059 ft 382 kts 300°
2026-05-05 10:45 30.83149 -84.96897 38066 ft 383 kts 300°
2026-05-05 10:46 30.85578 -85.02433 38067 ft 384 kts 300°
2026-05-05 10:46 30.88005 -85.07971 38062 ft 382 kts 300°
2026-05-05 10:47 30.90395 -85.13432 38058 ft 380 kts 300°
2026-05-05 10:47 30.92796 -85.18926 38056 ft 380 kts 300°
2026-05-05 10:48 30.95194 -85.24423 38024 ft 381 kts 300°
2026-05-05 10:48 30.97592 -85.29927 37994 ft 381 kts 300°
2026-05-05 10:49 30.99987 -85.35433 38022 ft 381 kts 300°
2026-05-05 10:49 31.02384 -85.40950 38030 ft 381 kts 300°
2026-05-05 10:50 31.04767 -85.46442 38014 ft 382 kts 299°
2026-05-05 10:50 31.07168 -85.51987 38022 ft 383 kts 299°
2026-05-05 10:51 31.09568 -85.57537 38014 ft 383 kts 299°
2026-05-05 10:51 31.11969 -85.63097 38029 ft 383 kts 299°
2026-05-05 10:52 31.14368 -85.68660 38033 ft 383 kts 299°
2026-05-05 10:52 31.16760 -85.74217 38035 ft 383 kts 299°
2026-05-05 10:53 31.19132 -85.79735 38028 ft 380 kts 299°
2026-05-05 10:53 31.21500 -85.85251 38035 ft 379 kts 299°
2026-05-05 10:54 31.23865 -85.90767 38031 ft 380 kts 299°
2026-05-05 10:54 31.26229 -85.96293 38029 ft 380 kts 299°
2026-05-05 10:55 31.28599 -86.01839 38034 ft 381 kts 299°
2026-05-05 10:55 31.30957 -86.07364 38036 ft 382 kts 299°
2026-05-05 10:56 31.33324 -86.12922 38038 ft 382 kts 299°
2026-05-05 10:56 31.35696 -86.18497 38014 ft 382 kts 299°
2026-05-05 10:57 31.38067 -86.24080 38029 ft 384 kts 299°
2026-05-05 10:57 31.40442 -86.29680 38027 ft 383 kts 299°
2026-05-05 10:58 31.42811 -86.35275 38015 ft 382 kts 299°
2026-05-05 10:58 31.45157 -86.40824 38013 ft 382 kts 299°
2026-05-05 10:59 31.47508 -86.46392 38041 ft 381 kts 298°
2026-05-05 10:59 31.49835 -86.51912 37979 ft 379 kts 298°
2026-05-05 11:00 31.52172 -86.57463 37962 ft 380 kts 298°
2026-05-05 11:00 31.54502 -86.63009 37989 ft 383 kts 298°
2026-05-05 11:01 31.56811 -86.68648 37991 ft 383 kts 297°
2026-05-05 11:01 31.59048 -86.74323 37999 ft 383 kts 297°
2026-05-05 11:02 31.61284 -86.80006 37989 ft 384 kts 297°
2026-05-05 11:02 31.63519 -86.85697 37994 ft 384 kts 297°
2026-05-05 11:03 31.65753 -86.91395 37982 ft 384 kts 297°
2026-05-05 11:03 31.67967 -86.97049 37985 ft 384 kts 297°
2026-05-05 11:04 31.70210 -87.02786 37981 ft 387 kts 297°
2026-05-05 11:04 31.72451 -87.08530 37960 ft 386 kts 297°
2026-05-05 11:05 31.74689 -87.14274 37987 ft 387 kts 297°
2026-05-05 11:05 31.76926 -87.20027 38032 ft 387 kts 297°
2026-05-05 11:06 31.79141 -87.25732 37996 ft 380 kts 297°
2026-05-05 11:06 31.81338 -87.31395 38003 ft 382 kts 297°
2026-05-05 11:07 31.83533 -87.37066 37978 ft 385 kts 296°
2026-05-05 11:07 31.85757 -87.42822 38004 ft 386 kts 296°
2026-05-05 11:08 31.87976 -87.48574 38003 ft 385 kts 296°
2026-05-05 11:08 31.90183 -87.54304 38001 ft 384 kts 296°
2026-05-05 11:09 31.92385 -87.60029 38016 ft 383 kts 296°
2026-05-05 11:09 31.94565 -87.65710 37995 ft 383 kts 296°
2026-05-05 11:10 31.96758 -87.71430 37997 ft 383 kts 296°
2026-05-05 11:10 31.98961 -87.77187 38025 ft 387 kts 296°
2026-05-05 11:11 32.01172 -87.82977 38023 ft 387 kts 296°
2026-05-05 11:11 32.03382 -87.88771 38022 ft 387 kts 296°
2026-05-05 11:12 32.05572 -87.94522 38023 ft 386 kts 296°
2026-05-05 11:12 32.07759 -88.00278 38014 ft 381 kts 296°
2026-05-05 11:13 32.09926 -88.05986 38005 ft 382 kts 296°
2026-05-05 11:13 32.12097 -88.11719 38013 ft 383 kts 296°
2026-05-05 11:14 32.14264 -88.17449 38004 ft 385 kts 296°
2026-05-05 11:14 32.16445 -88.23226 38007 ft 385 kts 295°
2026-05-05 11:15 32.18624 -88.29005 38018 ft 385 kts 295°
2026-05-05 11:15 32.20798 -88.34782 38008 ft 384 kts 295°
2026-05-05 11:16 32.22954 -88.40520 38008 ft 384 kts 295°
2026-05-05 11:16 32.25117 -88.46290 38006 ft 384 kts 295°
2026-05-05 11:17 32.27281 -88.52067 37988 ft 385 kts 295°
2026-05-05 11:17 32.29450 -88.57872 37994 ft 387 kts 295°
2026-05-05 11:18 32.31620 -88.63688 37999 ft 386 kts 295°
2026-05-05 11:18 32.33770 -88.69460 37997 ft 385 kts 295°
2026-05-05 11:19 32.35920 -88.75242 37984 ft 381 kts 295°
2026-05-05 11:19 32.37958 -88.81028 37983 ft 382 kts 290°
2026-05-05 11:20 32.39446 -88.87106 37967 ft 385 kts 289°
2026-05-05 11:20 32.40918 -88.93212 37922 ft 386 kts 288°
2026-05-05 11:21 32.42370 -88.99297 37926 ft 386 kts 289°
2026-05-05 11:21 32.43831 -89.05412 37928 ft 385 kts 288°
2026-05-05 11:22 32.45287 -89.11527 37922 ft 385 kts 288°
2026-05-05 11:22 32.46736 -89.17625 37925 ft 384 kts 288°
2026-05-05 11:23 32.48179 -89.23712 37909 ft 384 kts 288°
2026-05-05 11:23 32.49612 -89.29772 37915 ft 385 kts 288°
2026-05-05 11:24 32.51052 -89.35877 37874 ft 385 kts 288°
2026-05-05 11:24 32.52489 -89.41982 37879 ft 384 kts 288°
2026-05-05 11:25 32.53921 -89.48082 37878 ft 384 kts 288°
2026-05-05 11:25 32.55349 -89.54178 37877 ft 383 kts 288°
2026-05-05 11:26 32.56775 -89.60278 37898 ft 384 kts 288°
2026-05-05 11:26 32.58192 -89.66357 37899 ft 385 kts 288°
2026-05-05 11:27 32.59620 -89.72494 37923 ft 386 kts 288°
2026-05-05 11:27 32.61046 -89.78644 37925 ft 387 kts 288°
2026-05-05 11:28 32.62472 -89.84803 37912 ft 386 kts 288°
2026-05-05 11:28 32.63638 -89.89856 37911 ft 380 kts 288°
2026-05-05 11:29 32.65259 -89.96886 37910 ft 381 kts 288°
2026-05-05 11:29 32.66655 -90.02961 37944 ft 382 kts 288°
2026-05-05 11:30 32.67828 -90.08079 37947 ft 384 kts 287°
2026-05-05 11:30 32.69229 -90.14204 37947 ft 384 kts 287°
2026-05-05 11:31 32.70616 -90.20279 37949 ft 384 kts 287°
2026-05-05 11:31 32.71984 -90.26287 37947 ft 384 kts 287°
2026-05-05 11:32 32.73373 -90.32405 37937 ft 383 kts 287°
2026-05-05 11:32 32.74760 -90.38527 37912 ft 383 kts 287°
2026-05-05 11:33 32.76145 -90.44654 37933 ft 385 kts 287°
2026-05-05 11:33 32.77532 -90.50806 37935 ft 386 kts 287°
2026-05-05 11:34 32.78916 -90.56964 37934 ft 385 kts 287°
2026-05-05 11:34 32.80297 -90.63119 37936 ft 385 kts 287°
2026-05-05 11:35 32.81676 -90.69281 37939 ft 385 kts 287°
2026-05-05 11:35 32.83043 -90.75405 37937 ft 385 kts 287°
2026-05-05 11:36 32.84415 -90.81564 37930 ft 386 kts 287°
2026-05-05 11:36 32.85790 -90.87757 37931 ft 387 kts 287°
2026-05-05 11:37 32.87163 -90.93956 37944 ft 387 kts 287°
2026-05-05 11:37 32.88504 -91.00021 37947 ft 387 kts 287°
2026-05-05 11:38 32.89865 -91.06198 37946 ft 383 kts 287°
2026-05-05 11:38 32.91206 -91.12296 37941 ft 383 kts 287°
2026-05-05 11:39 32.92554 -91.18443 37945 ft 384 kts 286°
2026-05-05 11:39 32.93906 -91.24622 37941 ft 386 kts 286°
2026-05-05 11:40 32.95256 -91.30809 37940 ft 386 kts 286°
2026-05-05 11:40 32.96602 -91.36996 37937 ft 386 kts 286°
2026-05-05 11:41 32.97937 -91.43146 37926 ft 386 kts 286°
2026-05-05 11:41 32.99278 -91.49339 37923 ft 386 kts 286°
2026-05-05 11:42 33.00616 -91.55533 37900 ft 386 kts 286°
2026-05-05 11:42 33.01955 -91.61753 37902 ft 389 kts 286°
2026-05-05 11:43 33.03296 -91.67991 37904 ft 387 kts 286°
2026-05-05 11:43 33.04629 -91.74213 37891 ft 387 kts 286°
2026-05-05 11:44 33.05946 -91.80376 37889 ft 386 kts 286°
2026-05-05 11:44 33.07267 -91.86574 37875 ft 385 kts 286°
2026-05-05 11:45 33.08584 -91.92766 37879 ft 385 kts 285°
2026-05-05 11:45 33.09902 -91.98981 37881 ft 387 kts 285°
2026-05-05 11:46 33.11222 -92.05222 37883 ft 388 kts 285°
2026-05-05 11:46 33.12538 -92.11464 37889 ft 388 kts 285°
2026-05-05 11:47 33.13853 -92.17713 37889 ft 388 kts 285°
2026-05-05 11:47 33.15156 -92.23927 37869 ft 383 kts 285°
2026-05-05 11:48 33.17083 -92.33138 37872 ft 385 kts 285°
2026-05-05 11:48 33.18376 -92.39346 37875 ft 386 kts 285°
2026-05-05 11:49 33.19673 -92.45584 37866 ft 386 kts 285°
2026-05-05 11:49 33.20963 -92.51806 37864 ft 386 kts 285°
2026-05-05 11:50 33.22250 -92.58031 37862 ft 385 kts 285°
2026-05-05 11:50 33.23523 -92.64207 37858 ft 385 kts 285°
2026-05-05 11:51 33.24801 -92.70418 37847 ft 385 kts 284°
2026-05-05 11:51 33.26150 -92.76617 37855 ft 385 kts 286°
2026-05-05 11:52 33.27615 -92.82793 37850 ft 387 kts 286°
2026-05-05 11:52 33.29075 -92.88943 37847 ft 387 kts 286°
2026-05-05 11:53 33.30541 -92.95133 37839 ft 387 kts 286°
2026-05-05 11:53 33.32003 -93.01323 37838 ft 387 kts 286°
2026-05-05 11:54 33.33464 -93.07521 37826 ft 387 kts 285°
2026-05-05 11:54 33.34916 -93.13703 37826 ft 389 kts 285°
2026-05-05 11:55 33.36379 -93.19941 37826 ft 388 kts 285°
2026-05-05 11:55 33.37832 -93.26153 37824 ft 388 kts 285°
2026-05-05 11:56 33.39281 -93.32362 37819 ft 387 kts 285°
2026-05-05 11:56 33.40724 -93.38563 37811 ft 386 kts 285°
2026-05-05 11:57 33.42165 -93.44767 37805 ft 387 kts 285°
2026-05-05 11:57 33.43603 -93.50978 37803 ft 387 kts 285°
2026-05-05 11:58 33.45032 -93.57161 37797 ft 388 kts 285°
2026-05-05 11:58 33.46471 -93.63407 37801 ft 389 kts 285°
2026-05-05 11:59 33.47909 -93.69663 37803 ft 389 kts 285°
2026-05-05 11:59 33.49345 -93.75926 37806 ft 389 kts 285°
2026-05-05 12:00 33.50773 -93.82165 37790 ft 388 kts 285°
2026-05-05 12:00 33.52188 -93.88372 37798 ft 389 kts 285°
2026-05-05 12:01 33.53617 -93.94647 37808 ft 390 kts 285°
2026-05-05 12:01 33.55042 -94.00928 37808 ft 390 kts 285°
2026-05-05 12:02 33.56461 -94.07192 37811 ft 389 kts 285°
2026-05-05 12:02 33.57872 -94.13444 37800 ft 387 kts 285°
2026-05-05 12:03 33.59269 -94.19644 37758 ft 387 kts 285°
2026-05-05 12:03 33.60677 -94.25908 37785 ft 391 kts 284°
2026-05-05 12:04 33.62088 -94.32205 37782 ft 389 kts 284°
2026-05-05 12:04 33.63484 -94.38452 37772 ft 387 kts 284°
2026-05-05 12:05 33.64876 -94.44694 37766 ft 387 kts 284°
2026-05-05 12:05 33.66254 -94.50893 37767 ft 387 kts 284°
2026-05-05 12:06 33.67640 -94.57141 37762 ft 387 kts 284°
2026-05-05 12:06 33.69024 -94.63395 37762 ft 388 kts 284°
2026-05-05 12:07 33.70410 -94.69677 37765 ft 390 kts 284°
2026-05-05 12:07 33.71798 -94.75984 37754 ft 389 kts 284°
2026-05-05 12:08 33.73155 -94.82165 37759 ft 388 kts 284°
2026-05-05 12:08 33.74519 -94.88393 37756 ft 387 kts 284°
2026-05-05 12:09 33.75885 -94.94650 37752 ft 387 kts 284°
2026-05-05 12:09 33.77252 -95.00926 37755 ft 388 kts 283°
2026-05-05 12:10 33.78617 -95.07213 37752 ft 389 kts 283°
2026-05-05 12:10 33.79988 -95.13538 37749 ft 390 kts 283°
2026-05-05 12:11 33.81342 -95.19806 37745 ft 389 kts 283°
2026-05-05 12:11 33.82695 -95.26084 37743 ft 388 kts 283°
2026-05-05 12:12 33.84045 -95.32367 37770 ft 388 kts 283°
2026-05-05 12:12 33.85390 -95.38643 37746 ft 386 kts 283°
2026-05-05 12:13 33.86729 -95.44906 37744 ft 387 kts 283°
2026-05-05 12:13 33.88059 -95.51142 37748 ft 388 kts 283°
2026-05-05 12:14 33.89342 -95.57318 37747 ft 389 kts 282°
2026-05-05 12:14 33.90641 -95.63635 37730 ft 389 kts 282°
2026-05-05 12:15 33.91945 -95.69956 37729 ft 388 kts 282°
2026-05-05 12:15 33.93236 -95.76251 37715 ft 387 kts 282°
2026-05-05 12:16 33.94516 -95.82501 37706 ft 387 kts 282°
2026-05-05 12:16 33.95801 -95.88796 37706 ft 387 kts 282°
2026-05-05 12:17 33.97083 -95.95095 37691 ft 387 kts 282°
2026-05-05 12:17 33.98366 -96.01415 37700 ft 388 kts 282°
2026-05-05 12:18 33.99429 -96.06667 37709 ft 388 kts 282°
2026-05-05 12:18 34.00706 -96.12987 37713 ft 388 kts 282°
2026-05-05 12:19 34.01981 -96.19321 37725 ft 389 kts 282°
2026-05-05 12:19 34.03257 -96.25670 37734 ft 390 kts 281°
2026-05-05 12:20 34.04529 -96.32024 37739 ft 389 kts 281°
2026-05-05 12:20 34.05783 -96.38304 37735 ft 386 kts 281°
2026-05-05 12:21 34.07035 -96.44595 37725 ft 385 kts 281°
2026-05-05 12:21 34.08284 -96.50884 37719 ft 387 kts 281°
2026-05-05 12:22 34.09535 -96.57206 37674 ft 388 kts 281°
2026-05-05 12:22 34.10785 -96.63538 37675 ft 388 kts 281°
2026-05-05 12:23 34.12031 -96.69868 37675 ft 387 kts 281°
2026-05-05 12:23 34.13266 -96.76162 37680 ft 387 kts 281°
2026-05-05 12:24 34.14507 -96.82507 37680 ft 387 kts 281°
2026-05-05 12:24 34.15745 -96.88851 37673 ft 389 kts 281°
2026-05-05 12:25 34.16983 -96.95215 37679 ft 390 kts 281°
2026-05-05 12:25 34.18212 -97.01552 37683 ft 390 kts 281°
2026-05-05 12:26 34.19445 -97.07924 37682 ft 389 kts 281°
2026-05-05 12:26 34.20673 -97.14296 37688 ft 389 kts 281°
2026-05-05 12:27 34.21879 -97.20660 37680 ft 388 kts 280°
2026-05-05 12:27 34.23034 -97.27034 37671 ft 388 kts 280°
2026-05-05 12:28 34.24209 -97.33400 37658 ft 388 kts 280°
2026-05-05 12:28 34.25361 -97.39721 37698 ft 387 kts 280°
2026-05-05 12:29 34.26516 -97.46054 37643 ft 383 kts 280°
2026-05-05 12:29 34.27659 -97.52354 37643 ft 384 kts 280°
2026-05-05 12:30 34.28806 -97.58684 37647 ft 385 kts 280°
2026-05-05 12:30 34.29950 -97.65025 37638 ft 387 kts 280°
2026-05-05 12:31 34.31097 -97.71396 37640 ft 388 kts 280°
2026-05-05 12:31 34.32240 -97.77767 37640 ft 387 kts 279°
2026-05-05 12:32 34.33374 -97.84104 37642 ft 387 kts 279°
2026-05-05 12:32 34.34508 -97.90468 37637 ft 387 kts 279°
2026-05-05 12:33 34.35639 -97.96831 37639 ft 386 kts 279°
2026-05-05 12:33 34.36736 -98.03008 37620 ft 360 kts 279°
2026-05-05 12:34 34.37249 -98.05909 37607 ft 345 kts 279°
2026-05-05 12:34 34.37741 -98.08701 37604 ft 332 kts 279°
2026-05-05 12:34 34.38678 -98.14033 37613 ft 323 kts 279°
2026-05-05 12:35 34.39622 -98.19421 37620 ft 334 kts 279°
2026-05-05 12:35 34.40573 -98.24838 37622 ft 336 kts 279°
2026-05-05 12:36 34.41554 -98.30456 37620 ft 335 kts 279°
2026-05-05 12:36 34.42516 -98.35976 37614 ft 334 kts 279°
2026-05-05 12:37 34.43474 -98.41493 37612 ft 334 kts 279°
2026-05-05 12:37 34.44424 -98.46981 37635 ft 335 kts 279°
2026-05-05 12:38 34.45374 -98.52479 37612 ft 332 kts 278°
2026-05-05 12:38 34.46316 -98.57953 37606 ft 332 kts 278°
2026-05-05 12:39 34.47258 -98.63434 37606 ft 332 kts 278°
2026-05-05 12:39 34.48198 -98.68922 37589 ft 333 kts 278°
2026-05-05 12:40 34.49130 -98.74380 37591 ft 333 kts 278°
2026-05-05 12:40 34.50071 -98.79904 37587 ft 335 kts 278°
2026-05-05 12:41 34.51011 -98.85438 37590 ft 335 kts 278°
2026-05-05 12:41 34.51949 -98.90983 37602 ft 335 kts 278°
2026-05-05 12:42 34.52885 -98.96526 37611 ft 335 kts 278°
2026-05-05 12:42 34.53818 -99.02066 37621 ft 335 kts 278°
2026-05-05 12:43 34.54742 -99.07570 37631 ft 334 kts 278°
2026-05-05 12:43 34.55668 -99.13103 37633 ft 335 kts 278°
2026-05-05 12:44 34.56592 -99.18645 37643 ft 335 kts 278°
2026-05-05 12:44 34.57517 -99.24202 37650 ft 336 kts 278°
2026-05-05 12:45 34.58438 -99.29756 37652 ft 335 kts 278°
2026-05-05 12:45 34.59351 -99.35276 37650 ft 336 kts 278°
2026-05-05 12:46 34.60267 -99.40828 37599 ft 336 kts 278°
2026-05-05 12:46 34.61182 -99.46394 37603 ft 336 kts 278°
2026-05-05 12:47 34.62094 -99.51958 37643 ft 336 kts 278°
2026-05-05 12:47 34.63002 -99.57508 37598 ft 333 kts 278°
2026-05-05 12:48 34.63894 -99.62981 37596 ft 332 kts 278°
2026-05-05 12:48 34.64789 -99.68492 37595 ft 333 kts 278°
2026-05-05 12:49 34.65685 -99.74021 37611 ft 333 kts 278°
2026-05-05 12:49 34.66577 -99.79548 37614 ft 334 kts 278°
2026-05-05 12:50 34.67471 -99.85095 37634 ft 334 kts 278°
2026-05-05 12:50 34.68361 -99.90644 37633 ft 335 kts 278°
2026-05-05 12:51 34.69253 -99.96213 37637 ft 336 kts 278°
2026-05-05 12:51 34.70138 -100.01764 37641 ft 337 kts 278°
2026-05-05 12:52 34.71026 -100.07343 37640 ft 335 kts 278°
2026-05-05 12:52 34.71908 -100.12907 37638 ft 334 kts 278°
2026-05-05 12:53 34.72777 -100.18401 37653 ft 334 kts 277°
2026-05-05 12:53 34.73647 -100.23921 37652 ft 335 kts 277°
2026-05-05 12:54 34.74961 -100.32292 37663 ft 337 kts 277°
2026-05-05 12:55 34.75839 -100.37908 37663 ft 337 kts 277°
2026-05-05 12:55 34.76711 -100.43495 37674 ft 336 kts 277°
2026-05-05 12:56 34.77571 -100.49035 37667 ft 335 kts 277°
2026-05-05 12:56 34.78433 -100.54594 37662 ft 334 kts 277°
2026-05-05 12:57 34.79292 -100.60158 37687 ft 335 kts 277°
2026-05-05 12:57 34.80154 -100.65763 37689 ft 338 kts 277°
2026-05-05 12:58 34.81018 -100.71388 37688 ft 338 kts 277°
2026-05-05 12:58 34.81878 -100.77009 37694 ft 338 kts 277°
2026-05-05 12:59 34.82736 -100.82635 37691 ft 337 kts 277°
2026-05-05 12:59 34.83588 -100.88241 37697 ft 337 kts 277°
2026-05-05 13:00 34.84857 -100.96618 37693 ft 337 kts 277°
2026-05-05 13:01 34.86546 -101.07845 37713 ft 337 kts 277°
2026-05-05 13:01 34.87389 -101.13476 37708 ft 337 kts 277°
2026-05-05 13:02 34.88225 -101.19073 37711 ft 338 kts 277°
2026-05-05 13:02 34.89062 -101.24706 37713 ft 338 kts 277°
2026-05-05 13:03 34.89898 -101.30338 37718 ft 338 kts 276°
2026-05-05 13:03 34.90733 -101.35993 37713 ft 340 kts 276°
2026-05-05 13:04 34.91570 -101.41666 37736 ft 340 kts 276°
2026-05-05 13:04 34.92396 -101.47292 37732 ft 339 kts 276°
2026-05-05 13:05 34.93214 -101.52882 37734 ft 339 kts 276°
2026-05-05 13:05 34.94038 -101.58536 37729 ft 339 kts 276°
2026-05-05 13:06 34.94861 -101.64196 37746 ft 338 kts 276°
2026-05-05 13:06 34.95676 -101.69820 37743 ft 336 kts 276°
2026-05-05 13:07 34.96348 -101.74480 37745 ft 336 kts 276°
2026-05-05 13:07 34.97160 -101.80112 37751 ft 337 kts 276°
2026-05-05 13:08 34.97968 -101.85748 37761 ft 337 kts 276°
2026-05-05 13:08 34.98775 -101.91388 37769 ft 337 kts 276°
2026-05-05 13:09 34.99578 -101.97026 37774 ft 338 kts 276°
2026-05-05 13:09 35.00253 -102.02673 37780 ft 336 kts 274°
2026-05-05 13:10 35.00817 -102.08328 37795 ft 336 kts 273°
2026-05-05 13:10 35.01360 -102.13946 37795 ft 335 kts 273°
2026-05-05 13:11 35.01904 -102.19576 37871 ft 334 kts 273°
2026-05-05 13:11 35.02444 -102.25194 37875 ft 333 kts 273°
2026-05-05 13:12 35.02982 -102.30820 37881 ft 334 kts 273°
2026-05-05 13:12 35.03520 -102.36465 37888 ft 336 kts 273°
2026-05-05 13:13 35.04054 -102.42105 37883 ft 337 kts 273°
2026-05-05 13:13 35.04590 -102.47786 37872 ft 336 kts 273°
2026-05-05 13:14 35.05120 -102.53438 37858 ft 335 kts 272°
2026-05-05 13:14 35.05646 -102.59074 37838 ft 333 kts 272°
2026-05-05 13:15 35.06167 -102.64692 37833 ft 333 kts 272°
2026-05-05 13:15 35.06687 -102.70323 37824 ft 334 kts 272°
2026-05-05 13:16 35.07206 -102.75971 37829 ft 336 kts 272°
2026-05-05 13:16 35.07722 -102.81616 37838 ft 337 kts 272°
2026-05-05 13:17 35.08238 -102.87283 37830 ft 334 kts 272°
2026-05-05 13:17 35.08746 -102.92911 37830 ft 333 kts 272°
2026-05-05 13:18 35.09253 -102.98543 37846 ft 333 kts 272°
2026-05-05 13:18 35.09755 -103.04148 37852 ft 334 kts 272°
2026-05-05 13:19 35.10259 -103.09800 37855 ft 335 kts 272°
2026-05-05 13:19 35.10760 -103.15460 37838 ft 336 kts 271°
2026-05-05 13:20 35.11261 -103.21153 37839 ft 337 kts 271°
2026-05-05 13:20 35.11760 -103.26845 37838 ft 337 kts 271°
2026-05-05 13:21 35.12255 -103.32529 37840 ft 336 kts 271°
2026-05-05 13:21 35.12744 -103.38175 37850 ft 336 kts 271°
2026-05-05 13:22 35.13234 -103.43857 37834 ft 336 kts 271°
2026-05-05 13:22 35.13721 -103.49545 37841 ft 337 kts 271°
2026-05-05 13:23 35.14206 -103.55225 37830 ft 335 kts 271°
2026-05-05 13:23 35.14685 -103.60882 37827 ft 334 kts 271°
2026-05-05 13:24 35.15157 -103.66488 37820 ft 334 kts 271°
2026-05-05 13:24 35.15630 -103.72130 37924 ft 334 kts 271°
2026-05-05 13:25 35.16101 -103.77783 37912 ft 335 kts 271°
2026-05-05 13:25 35.16571 -103.83447 37895 ft 335 kts 271°
2026-05-05 13:26 35.17039 -103.89132 37879 ft 334 kts 270°
2026-05-05 13:26 35.17497 -103.94716 37845 ft 331 kts 270°
2026-05-05 13:27 35.17953 -104.00321 37828 ft 332 kts 270°
2026-05-05 13:27 35.18408 -104.05941 37811 ft 332 kts 270°
2026-05-05 13:28 35.18860 -104.11561 37799 ft 332 kts 270°
2026-05-05 13:28 35.19310 -104.17185 37801 ft 333 kts 270°
2026-05-05 13:29 35.19759 -104.22826 37774 ft 333 kts 269°
2026-05-05 13:29 35.20209 -104.28543 37792 ft 341 kts 269°
2026-05-05 13:30 35.20662 -104.34258 37807 ft 339 kts 269°
2026-05-05 13:30 35.21109 -104.40003 37793 ft 339 kts 269°
2026-05-05 13:31 35.21556 -104.45759 37794 ft 340 kts 269°
2026-05-05 13:31 35.22000 -104.51511 37786 ft 340 kts 269°
2026-05-05 13:32 35.22441 -104.57264 37792 ft 340 kts 269°
2026-05-05 13:32 35.22877 -104.62980 37787 ft 339 kts 269°
2026-05-05 13:33 35.23311 -104.68717 37789 ft 339 kts 269°
2026-05-05 13:33 35.23743 -104.74450 37788 ft 338 kts 269°
2026-05-05 13:34 35.24171 -104.80184 37787 ft 338 kts 269°
2026-05-05 13:34 35.24596 -104.85908 37782 ft 337 kts 269°
2026-05-05 13:35 35.25016 -104.91597 37786 ft 337 kts 269°
2026-05-05 13:35 35.25436 -104.97346 37805 ft 343 kts 269°
2026-05-05 13:36 35.25864 -105.03194 37808 ft 345 kts 269°
2026-05-05 13:36 35.26287 -105.09043 37819 ft 344 kts 269°
2026-05-05 13:37 35.26706 -105.14884 37819 ft 344 kts 269°
2026-05-05 13:37 35.27123 -105.20717 37819 ft 344 kts 269°
2026-05-05 13:38 35.27534 -105.26506 37845 ft 344 kts 268°
2026-05-05 13:38 35.27943 -105.32333 37823 ft 344 kts 268°
2026-05-05 13:39 35.28353 -105.38202 37846 ft 346 kts 268°
2026-05-05 13:39 35.28762 -105.44074 37848 ft 346 kts 268°
2026-05-05 13:40 35.29166 -105.49953 37842 ft 346 kts 268°
2026-05-05 13:40 35.29568 -105.55812 37856 ft 345 kts 268°
2026-05-05 13:41 35.29966 -105.61674 37858 ft 345 kts 268°
2026-05-05 13:41 35.30362 -105.67539 37869 ft 346 kts 268°
2026-05-05 13:42 35.30755 -105.73407 37871 ft 346 kts 268°
2026-05-05 13:42 35.31142 -105.79230 37874 ft 345 kts 267°
2026-05-05 13:43 35.31530 -105.85100 37876 ft 346 kts 267°
2026-05-05 13:43 35.31914 -105.90972 37879 ft 346 kts 267°
2026-05-05 13:44 35.32296 -105.96844 37906 ft 346 kts 267°
2026-05-05 13:44 35.32675 -106.02723 37915 ft 345 kts 267°
2026-05-05 13:45 35.33049 -106.08547 37916 ft 342 kts 267°
2026-05-05 13:45 35.33414 -106.14314 37926 ft 342 kts 267°
2026-05-05 13:46 35.33782 -106.20142 37932 ft 344 kts 267°
2026-05-05 13:46 35.34143 -106.25894 37926 ft 343 kts 267°
2026-05-05 13:47 35.34504 -106.31700 37910 ft 341 kts 267°
2026-05-05 13:47 35.34861 -106.37501 37892 ft 340 kts 266°
2026-05-05 13:48 35.35213 -106.43250 37892 ft 338 kts 266°
2026-05-05 13:48 35.35562 -106.49017 37900 ft 340 kts 266°
2026-05-05 13:49 35.35910 -106.54815 37910 ft 343 kts 266°
2026-05-05 13:49 35.36258 -106.60616 37911 ft 344 kts 266°
2026-05-05 13:50 35.36604 -106.66454 37910 ft 343 kts 266°
2026-05-05 13:50 35.36946 -106.72278 37900 ft 343 kts 266°
2026-05-05 13:51 35.37285 -106.78091 37908 ft 341 kts 266°
2026-05-05 13:51 35.37619 -106.83880 37900 ft 340 kts 266°
2026-05-05 13:52 35.37950 -106.89673 37908 ft 341 kts 266°
2026-05-05 13:52 35.38280 -106.95472 37909 ft 341 kts 266°
2026-05-05 13:53 35.38606 -107.01264 37905 ft 340 kts 266°
2026-05-05 13:53 35.38930 -107.07072 37932 ft 343 kts 265°
2026-05-05 13:54 35.39252 -107.12885 37935 ft 345 kts 265°
2026-05-05 13:54 35.39574 -107.18758 37933 ft 346 kts 265°
2026-05-05 13:55 35.39841 -107.23645 37951 ft 345 kts 265°
2026-05-05 13:55 35.40157 -107.29501 37950 ft 344 kts 265°
2026-05-05 13:56 35.40470 -107.35352 37958 ft 344 kts 265°
2026-05-05 13:56 35.40780 -107.41208 37953 ft 345 kts 265°
2026-05-05 13:57 35.41089 -107.47083 37971 ft 346 kts 265°
2026-05-05 13:57 35.41395 -107.52963 37967 ft 345 kts 265°
2026-05-05 13:58 35.41695 -107.58785 37970 ft 344 kts 265°
2026-05-05 13:58 35.41993 -107.64632 37963 ft 345 kts 265°
2026-05-05 13:59 35.42438 -107.73462 37961 ft 348 kts 266°
2026-05-05 14:00 35.42882 -107.82364 38012 ft 348 kts 265°
2026-05-05 14:00 35.43172 -107.88287 38012 ft 348 kts 265°
2026-05-05 14:01 35.43460 -107.94208 38014 ft 348 kts 265°
2026-05-05 14:01 35.43743 -108.00099 37996 ft 348 kts 265°
2026-05-05 14:02 35.44026 -108.06023 37988 ft 347 kts 265°
2026-05-05 14:02 35.44304 -108.11936 37977 ft 346 kts 265°
2026-05-05 14:03 35.44579 -108.17831 37977 ft 347 kts 265°
2026-05-05 14:03 35.44852 -108.23750 37969 ft 348 kts 265°
2026-05-05 14:04 35.45122 -108.29663 37966 ft 347 kts 265°
2026-05-05 14:04 35.45388 -108.35539 37970 ft 347 kts 265°
2026-05-05 14:05 35.45652 -108.41441 37953 ft 346 kts 265°
2026-05-05 14:05 35.45912 -108.47383 37960 ft 353 kts 265°
2026-05-05 14:06 35.46178 -108.53423 37962 ft 355 kts 265°
2026-05-05 14:06 35.46439 -108.59460 37966 ft 353 kts 265°
2026-05-05 14:07 35.46694 -108.65443 37960 ft 353 kts 265°
2026-05-05 14:07 35.46948 -108.71463 37952 ft 353 kts 265°
2026-05-05 14:08 35.47200 -108.77488 38048 ft 353 kts 265°
2026-05-05 14:08 35.47447 -108.83523 38044 ft 355 kts 264°
2026-05-05 14:09 35.47608 -108.89559 38046 ft 352 kts 262°
2026-05-05 14:09 35.47645 -108.95601 38027 ft 356 kts 263°
2026-05-05 14:10 35.47674 -109.01675 38005 ft 356 kts 263°
2026-05-05 14:10 35.47699 -109.07758 38011 ft 356 kts 263°
2026-05-05 14:11 35.47722 -109.13836 37994 ft 358 kts 262°
2026-05-05 14:11 35.47742 -109.19935 37990 ft 357 kts 262°
2026-05-05 14:12 35.47758 -109.26030 37975 ft 357 kts 262°
2026-05-05 14:12 35.47771 -109.32088 37963 ft 357 kts 262°
2026-05-05 14:13 35.47782 -109.38200 37948 ft 357 kts 262°
2026-05-05 14:13 35.47789 -109.44300 37929 ft 357 kts 262°
2026-05-05 14:14 35.47794 -109.50397 37933 ft 356 kts 262°
2026-05-05 14:14 35.47796 -109.56461 37917 ft 354 kts 262°
2026-05-05 14:15 35.47793 -109.62462 37918 ft 354 kts 262°
2026-05-05 14:15 35.47788 -109.68514 37918 ft 355 kts 262°
2026-05-05 14:16 35.47780 -109.74590 37918 ft 356 kts 262°
2026-05-05 14:16 35.47770 -109.80665 37947 ft 357 kts 262°
2026-05-05 14:17 35.47756 -109.86757 37921 ft 357 kts 262°
2026-05-05 14:17 35.47739 -109.92842 37921 ft 356 kts 262°
2026-05-05 14:18 35.47719 -109.98869 37915 ft 355 kts 262°
2026-05-05 14:18 35.47695 -110.04932 37918 ft 355 kts 262°
2026-05-05 14:19 35.47669 -110.11023 37911 ft 357 kts 262°
2026-05-05 14:19 35.47639 -110.17130 37907 ft 360 kts 262°
2026-05-05 14:20 35.47607 -110.23300 37893 ft 362 kts 262°
2026-05-05 14:20 35.47572 -110.29418 37906 ft 361 kts 262°
2026-05-05 14:21 35.47532 -110.35582 37887 ft 362 kts 262°
2026-05-05 14:21 35.47492 -110.41756 37895 ft 362 kts 262°
2026-05-05 14:22 35.47445 -110.47933 37912 ft 363 kts 262°
2026-05-05 14:22 35.47396 -110.54160 37907 ft 366 kts 262°
2026-05-05 14:23 35.47345 -110.60407 37906 ft 365 kts 262°
2026-05-05 14:23 35.47290 -110.66586 37900 ft 364 kts 262°
2026-05-05 14:24 35.47232 -110.72793 37892 ft 363 kts 262°
2026-05-05 14:24 35.47170 -110.78992 37890 ft 362 kts 261°
2026-05-05 14:25 35.47104 -110.85199 37898 ft 367 kts 261°
2026-05-05 14:25 35.47037 -110.91472 37901 ft 368 kts 261°
2026-05-05 14:26 35.46965 -110.97755 37901 ft 368 kts 261°
2026-05-05 14:26 35.46891 -111.03941 37900 ft 368 kts 261°
2026-05-05 14:27 35.46813 -111.10222 37899 ft 368 kts 261°
2026-05-05 14:27 35.46730 -111.16505 37903 ft 369 kts 261°
2026-05-05 14:28 35.46644 -111.22846 37907 ft 373 kts 261°
2026-05-05 14:28 35.46557 -111.29202 37907 ft 372 kts 261°
2026-05-05 14:29 35.46464 -111.35544 37900 ft 371 kts 261°
2026-05-05 14:29 35.46369 -111.41834 37906 ft 370 kts 261°
2026-05-05 14:30 35.46270 -111.48149 37902 ft 371 kts 261°
2026-05-05 14:30 35.46168 -111.54481 37908 ft 371 kts 261°
2026-05-05 14:31 35.46063 -111.60809 37907 ft 370 kts 261°
2026-05-05 14:31 35.45955 -111.67078 37898 ft 370 kts 261°
2026-05-05 14:32 35.45843 -111.73401 37927 ft 372 kts 261°
2026-05-05 14:32 35.45727 -111.79769 37932 ft 374 kts 261°
2026-05-05 14:33 35.45734 -111.86213 37931 ft 385 kts 268°
2026-05-05 14:33 35.46697 -111.92781 37917 ft 392 kts 272°
2026-05-05 14:34 35.47761 -111.99277 37924 ft 390 kts 272°
2026-05-05 14:34 35.48834 -112.05798 37925 ft 390 kts 272°
2026-05-05 14:35 35.49902 -112.12326 37930 ft 390 kts 272°
2026-05-05 14:35 35.50972 -112.18890 37930 ft 392 kts 272°
2026-05-05 14:36 35.52034 -112.25421 37939 ft 393 kts 272°
2026-05-05 14:36 35.53101 -112.32014 37940 ft 393 kts 272°
2026-05-05 14:37 35.54164 -112.38599 37935 ft 393 kts 272°
2026-05-05 14:37 35.55223 -112.45188 37934 ft 392 kts 272°
2026-05-05 14:38 35.56284 -112.51834 37931 ft 399 kts 272°
2026-05-05 14:38 35.57356 -112.58523 37936 ft 399 kts 272°
2026-05-05 14:39 35.58407 -112.65138 37632 ft 394 kts 272°
2026-05-05 14:39 35.58930 -112.68427 37186 ft 390 kts 272°
2026-05-05 14:39 35.59446 -112.71689 36746 ft 387 kts 271°
2026-05-05 14:40 35.59955 -112.74916 36317 ft 384 kts 271°
2026-05-05 14:40 35.60461 -112.78129 35907 ft 382 kts 271°
2026-05-05 14:40 35.60964 -112.81339 35534 ft 384 kts 271°
2026-05-05 14:40 35.61471 -112.84585 35158 ft 388 kts 271°
2026-05-05 14:41 35.61985 -112.87853 34770 ft 389 kts 271°
2026-05-05 14:41 35.62500 -112.91121 34399 ft 389 kts 271°
2026-05-05 14:41 35.63011 -112.94391 34029 ft 389 kts 271°
2026-05-05 14:41 35.63518 -112.97657 33582 ft 389 kts 271°
2026-05-05 14:42 35.63854 -112.99822 33247 ft 389 kts 271°
2026-05-05 14:42 35.64363 -113.03096 32787 ft 390 kts 271°
2026-05-05 14:42 35.65046 -113.07499 32162 ft 393 kts 271°
2026-05-05 14:42 35.65386 -113.09695 31863 ft 395 kts 271°
2026-05-05 14:43 35.65899 -113.13038 31451 ft 403 kts 273°
2026-05-05 14:43 35.66426 -113.16478 31013 ft 414 kts 274°
2026-05-05 14:43 35.66970 -113.19965 30579 ft 414 kts 274°
2026-05-05 14:43 35.67508 -113.23433 30145 ft 413 kts 274°
2026-05-05 14:44 35.68037 -113.26902 29658 ft 413 kts 274°
2026-05-05 14:44 35.68565 -113.30390 29134 ft 417 kts 274°
2026-05-05 14:44 35.69102 -113.33893 28693 ft 413 kts 274°
2026-05-05 14:44 35.69630 -113.37314 27978 ft 409 kts 275°
2026-05-05 14:45 35.70152 -113.40741 27530 ft 406 kts 274°
2026-05-05 14:45 35.70666 -113.44179 27118 ft 413 kts 275°
2026-05-05 14:45 35.71193 -113.47680 26698 ft 418 kts 275°
2026-05-05 14:45 35.71731 -113.51196 26230 ft 417 kts 276°
2026-05-05 14:46 35.72264 -113.54705 25762 ft 416 kts 276°
2026-05-05 14:46 35.72789 -113.58205 25306 ft 415 kts 276°
2026-05-05 14:46 35.73310 -113.61688 24849 ft 413 kts 276°
2026-05-05 14:46 35.73831 -113.65159 24387 ft 412 kts 276°
2026-05-05 14:47 35.74343 -113.68577 23936 ft 410 kts 277°
2026-05-05 14:47 35.74859 -113.72030 23509 ft 409 kts 277°
2026-05-05 14:47 35.75372 -113.75474 23013 ft 409 kts 277°
2026-05-05 14:47 35.75883 -113.78910 22488 ft 408 kts 278°
2026-05-05 14:48 35.76392 -113.82335 21984 ft 406 kts 278°
2026-05-05 14:48 35.76897 -113.85739 21480 ft 403 kts 278°
2026-05-05 14:48 35.77396 -113.89120 20989 ft 400 kts 278°
2026-05-05 14:48 35.77893 -113.92490 20504 ft 398 kts 278°
2026-05-05 14:49 35.78385 -113.95832 20031 ft 396 kts 278°
2026-05-05 14:49 35.78875 -113.99162 19569 ft 394 kts 278°
2026-05-05 14:49 35.79361 -114.02480 19099 ft 392 kts 278°
2026-05-05 14:49 35.79844 -114.05775 18649 ft 390 kts 278°
2026-05-05 14:50 35.80322 -114.09052 18208 ft 388 kts 278°
2026-05-05 14:50 35.80800 -114.12322 17707 ft 386 kts 278°
2026-05-05 14:50 35.81272 -114.15564 17197 ft 383 kts 278°
2026-05-05 14:50 35.81738 -114.18790 16697 ft 381 kts 278°
2026-05-05 14:51 35.82203 -114.21992 16204 ft 378 kts 278°
2026-05-05 14:51 35.82666 -114.25177 15726 ft 376 kts 278°
2026-05-05 14:51 35.83121 -114.28342 15246 ft 374 kts 278°
2026-05-05 14:51 35.83579 -114.31452 14787 ft 372 kts 281°
2026-05-05 14:52 35.84538 -114.34406 14336 ft 374 kts 301°
2026-05-05 14:52 35.86061 -114.37013 13909 ft 375 kts 306°
2026-05-05 14:52 35.87654 -114.39545 13443 ft 373 kts 308°
2026-05-05 14:52 35.89256 -114.42049 12955 ft 369 kts 307°
2026-05-05 14:53 35.90799 -114.44518 12479 ft 357 kts 306°
2026-05-05 14:53 35.92275 -114.46910 12007 ft 344 kts 306°
2026-05-05 14:53 35.93708 -114.49215 11543 ft 333 kts 307°
2026-05-05 14:53 35.95104 -114.51449 11077 ft 324 kts 306°
2026-05-05 14:54 35.96457 -114.53622 10611 ft 315 kts 306°
2026-05-05 14:54 35.97765 -114.55749 10160 ft 307 kts 306°
2026-05-05 14:54 35.99039 -114.57825 9734 ft 300 kts 306°
2026-05-05 14:54 36.00282 -114.59843 9339 ft 290 kts 306°
2026-05-05 14:55 36.01486 -114.61796 8942 ft 281 kts 306°
2026-05-05 14:55 36.02653 -114.63695 8541 ft 274 kts 306°
2026-05-05 14:55 36.03782 -114.65558 8161 ft 267 kts 302°
2026-05-05 14:55 36.04691 -114.67532 7815 ft 261 kts 300°
2026-05-05 14:56 36.05660 -114.69400 7545 ft 255 kts 301°
2026-05-05 14:56 36.06590 -114.71227 7353 ft 249 kts 300°
2026-05-05 14:56 36.07291 -114.73167 7112 ft 247 kts 276°
2026-05-05 14:56 36.07347 -114.75277 6814 ft 245 kts 268°
2026-05-05 14:57 36.07343 -114.77324 6534 ft 237 kts 267°
2026-05-05 14:57 36.07339 -114.79335 6254 ft 231 kts 267°
2026-05-05 14:57 36.07342 -114.81312 6022 ft 228 kts 267°
2026-05-05 14:57 36.07349 -114.83223 5758 ft 217 kts 267°
2026-05-05 14:58 36.07354 -114.85037 5507 ft 206 kts 267°
2026-05-05 14:58 36.07357 -114.86764 5234 ft 196 kts 267°
2026-05-05 14:58 36.07359 -114.88420 4971 ft 189 kts 266°
2026-05-05 14:58 36.07363 -114.89945 4983 ft 168 kts 266°
2026-05-05 14:59 36.07365 -114.91366 4982 ft 164 kts 265°
2026-05-05 14:59 36.07365 -114.92762 4984 ft 162 kts 266°
2026-05-05 14:59 36.07364 -114.94148 4959 ft 166 kts 266°
2026-05-05 14:59 36.07365 -114.95581 4765 ft 164 kts 265°
2026-05-05 15:00 36.07364 -114.96978 4538 ft 162 kts 266°
2026-05-05 15:00 36.07364 -114.97907 4387 ft 158 kts 266°
2026-05-05 15:00 36.07364 -114.99708 4119 ft 158 kts 266°
2026-05-05 15:00 36.07363 -115.01071 3915 ft 159 kts 267°
2026-05-05 15:01 36.07362 -115.02431 3706 ft 156 kts 267°
2026-05-05 15:01 36.07362 -115.03770 3505 ft 156 kts 268°
2026-05-05 15:01 36.07366 -115.05104 3299 ft 153 kts 266°
2026-05-05 15:01 36.07364 -115.06413 3093 ft 152 kts 267°
2026-05-05 15:02 36.07366 -115.07754 2901 ft 159 kts 266°
2026-05-05 15:02 36.07385 -115.09115 2641 ft 156 kts 265°
2026-05-05 15:02 36.07377 -115.10452 2422 ft 157 kts 264°
2026-05-05 15:02 36.07371 -115.11833 2196 ft 159 kts 268°
2026-05-05 15:03 36.07370 -115.13150 2077 ft 141 kts 266°
2026-05-05 15:03 36.07367 -115.14136 2090 ft 92 kts 269°
2026-05-05 15:03 36.07366 -115.14763 2099 ft 56 kts 269°
2026-05-05 15:03 36.07368 -115.15165 2105 ft 44 kts 274°
2026-05-05 15:04 36.07454 -115.15470 2111 ft 31 kts 299°
2026-05-05 15:04 36.07542 -115.15626 2118 ft 3 kts 315°
2026-05-05 15:05 36.07543 -115.15627 2118 ft 1 kts 315°
2026-05-05 15:05 36.07571 -115.15661 2121 ft 11 kts 315°
2026-05-05 15:05 36.07652 -115.15759 2126 ft 21 kts 315°
2026-05-05 15:06 36.07782 -115.15809 2119 ft 21 kts 33°
2026-05-05 15:06 36.07805 -115.15650 2111 ft 20 kts 92°